Year,Month,Day,Hour,Minute,Value (Times are PST for temperature in C)
2012,10,02,00,00,10.80
2012,10,02,00,01,10.80
2012,10,02,00,02,10.80
2012,10,02,00,03,10.80
2012,10,02,00,04,10.80
2012,10,02,00,05,10.80
2012,10,02,00,06,10.80
2012,10,02,00,07,10.80
2012,10,02,00,08,10.80
2012,10,02,00,09,10.80
2012,10,02,00,10,10.80
2012,10,02,00,11,10.80
2012,10,02,00,12,10.80
2012,10,02,00,13,10.80
2012,10,02,00,14,10.80
2012,10,02,00,15,10.80
2012,10,02,00,16,10.70
2012,10,02,00,17,10.70
2012,10,02,00,18,10.70
2012,10,02,00,19,10.70
2012,10,02,00,20,10.70
2012,10,02,00,21,10.70
2012,10,02,00,22,10.70
2012,10,02,00,23,10.70
2012,10,02,00,24,10.70
2012,10,02,00,25,10.70
2012,10,02,00,26,10.70
2012,10,02,00,27,10.70
2012,10,02,00,28,10.70
2012,10,02,00,29,10.70
2012,10,02,00,30,10.70
2012,10,02,00,31,10.70
2012,10,02,00,32,10.70
2012,10,02,00,33,10.60
2012,10,02,00,34,10.60
2012,10,02,00,35,10.60
2012,10,02,00,36,10.60
2012,10,02,00,37,10.60
2012,10,02,00,38,10.60
2012,10,02,00,39,10.60
2012,10,02,00,40,10.60
2012,10,02,00,41,10.60
2012,10,02,00,42,10.60
2012,10,02,00,43,10.60
2012,10,02,00,44,10.60
2012,10,02,00,45,10.60
2012,10,02,00,46,10.50
2012,10,02,00,47,10.40
2012,10,02,00,48,10.40
2012,10,02,00,49,10.40
2012,10,02,00,50,10.40
2012,10,02,00,51,10.40
2012,10,02,00,52,10.40
2012,10,02,00,53,10.40
2012,10,02,00,54,10.40
2012,10,02,00,55,10.40
2012,10,02,00,56,10.40
2012,10,02,00,57,10.40
2012,10,02,00,58,10.40
2012,10,02,00,59,10.40
2012,10,02,01,00,10.40
2012,10,02,01,01,10.40
2012,10,02,01,02,10.40
2012,10,02,01,03,10.40
2012,10,02,01,04,10.40
2012,10,02,01,05,10.30
2012,10,02,01,06,10.30
2012,10,02,01,07,10.30
2012,10,02,01,08,10.30
2012,10,02,01,09,10.30
2012,10,02,01,10,10.30
2012,10,02,01,11,10.30
2012,10,02,01,12,10.30
2012,10,02,01,13,10.30
2012,10,02,01,14,10.30
2012,10,02,01,15,10.30
2012,10,02,01,16,10.30
2012,10,02,01,17,10.30
2012,10,02,01,18,10.30
2012,10,02,01,19,10.30
2012,10,02,01,20,10.30
2012,10,02,01,21,10.30
2012,10,02,01,22,10.20
2012,10,02,01,23,10.20
2012,10,02,01,24,10.20
2012,10,02,01,25,10.20
2012,10,02,01,26,10.20
2012,10,02,01,27,10.20
2012,10,02,01,28,10.20
2012,10,02,01,29,10.20
2012,10,02,01,30,10.20
2012,10,02,01,31,10.10
2012,10,02,01,32,10.10
2012,10,02,01,33,10.10
2012,10,02,01,34,10.10
2012,10,02,01,35,10.10
2012,10,02,01,36,10.10
2012,10,02,01,37,10.10
2012,10,02,01,38,10.10
2012,10,02,01,39,10.10
2012,10,02,01,40,10.10
2012,10,02,01,41,10.10
2012,10,02,01,42,10.00
2012,10,02,01,43,9.90
2012,10,02,01,44,9.90
2012,10,02,01,45,9.90
2012,10,02,01,46,9.90
2012,10,02,01,47,9.90
2012,10,02,01,48,10.00
2012,10,02,01,49,10.10
2012,10,02,01,50,10.10
2012,10,02,01,51,10.00
2012,10,02,01,52,9.90
2012,10,02,01,53,9.90
2012,10,02,01,54,9.90
2012,10,02,01,55,9.90
2012,10,02,01,56,9.80
2012,10,02,01,57,9.80
2012,10,02,01,58,9.90
2012,10,02,01,59,9.90
2012,10,02,02,00,9.90
2012,10,02,02,01,9.90
2012,10,02,02,02,9.90
2012,10,02,02,03,9.80
2012,10,02,02,04,9.70
2012,10,02,02,05,9.70
2012,10,02,02,06,9.60
2012,10,02,02,07,9.60
2012,10,02,02,08,9.60
2012,10,02,02,09,9.60
2012,10,02,02,10,9.60
2012,10,02,02,11,9.60
2012,10,02,02,12,9.60
2012,10,02,02,13,9.60
2012,10,02,02,14,9.60
2012,10,02,02,15,9.60
2012,10,02,02,16,9.60
2012,10,02,02,17,9.70
2012,10,02,02,18,9.70
2012,10,02,02,19,9.70
2012,10,02,02,20,9.70
2012,10,02,02,21,9.70
2012,10,02,02,22,9.70
2012,10,02,02,23,9.70
2012,10,02,02,24,9.70
2012,10,02,02,25,9.60
2012,10,02,02,26,9.60
2012,10,02,02,27,9.60
2012,10,02,02,28,9.60
2012,10,02,02,29,9.50
2012,10,02,02,30,9.50
2012,10,02,02,31,9.50
2012,10,02,02,32,9.50
2012,10,02,02,33,9.50
2012,10,02,02,34,9.60
2012,10,02,02,35,9.60
2012,10,02,02,36,9.60
2012,10,02,02,37,9.60
2012,10,02,02,38,9.60
2012,10,02,02,39,9.60
2012,10,02,02,40,9.60
2012,10,02,02,41,9.50
2012,10,02,02,42,9.50
2012,10,02,02,43,9.50
2012,10,02,02,44,9.50
2012,10,02,02,45,9.50
2012,10,02,02,46,9.40
2012,10,02,02,47,9.40
2012,10,02,02,48,9.40
2012,10,02,02,49,9.40
2012,10,02,02,50,9.40
2012,10,02,02,51,9.30
2012,10,02,02,52,9.30
2012,10,02,02,53,9.20
2012,10,02,02,54,9.20
2012,10,02,02,55,9.20
2012,10,02,02,56,9.20
2012,10,02,02,57,9.10
2012,10,02,02,58,9.10
2012,10,02,02,59,9.10
2012,10,02,03,00,9.10
2012,10,02,03,01,9.10
2012,10,02,03,02,9.10
2012,10,02,03,03,9.10
2012,10,02,03,04,9.00
2012,10,02,03,05,9.00
2012,10,02,03,06,9.00
2012,10,02,03,07,8.90
2012,10,02,03,08,8.90
2012,10,02,03,09,8.90
2012,10,02,03,10,8.90
2012,10,02,03,11,8.80
2012,10,02,03,12,8.80
2012,10,02,03,13,8.80
2012,10,02,03,14,8.90
2012,10,02,03,15,8.90
2012,10,02,03,16,8.90
2012,10,02,03,17,8.80
2012,10,02,03,18,8.80
2012,10,02,03,19,8.90
2012,10,02,03,20,8.90
2012,10,02,03,21,8.90
2012,10,02,03,22,8.90
2012,10,02,03,23,8.80
2012,10,02,03,24,8.80
2012,10,02,03,25,8.80
2012,10,02,03,26,8.70
2012,10,02,03,27,8.70
2012,10,02,03,28,8.70
2012,10,02,03,29,8.70
2012,10,02,03,30,8.70
2012,10,02,03,31,8.70
2012,10,02,03,32,8.70
2012,10,02,03,33,8.70
2012,10,02,03,34,8.70
2012,10,02,03,35,8.70
2012,10,02,03,36,8.70
2012,10,02,03,37,8.70
2012,10,02,03,38,8.70
2012,10,02,03,39,8.70
2012,10,02,03,40,8.70
2012,10,02,03,41,8.70
2012,10,02,03,42,8.60
2012,10,02,03,43,8.60
2012,10,02,03,44,8.60
2012,10,02,03,45,8.60
2012,10,02,03,46,8.60
2012,10,02,03,47,8.60
2012,10,02,03,48,8.50
2012,10,02,03,49,8.50
2012,10,02,03,50,8.50
2012,10,02,03,51,8.50
2012,10,02,03,52,8.40
2012,10,02,03,53,8.40
2012,10,02,03,54,8.40
2012,10,02,03,55,8.30
2012,10,02,03,56,8.30
2012,10,02,03,57,8.30
2012,10,02,03,58,8.20
2012,10,02,03,59,8.20
2012,10,02,04,00,8.20
2012,10,02,04,01,8.20
2012,10,02,04,02,8.20
2012,10,02,04,03,8.10
2012,10,02,04,04,8.10
2012,10,02,04,05,8.10
2012,10,02,04,06,8.10
2012,10,02,04,07,8.10
2012,10,02,04,08,8.10
2012,10,02,04,09,8.10
2012,10,02,04,10,8.00
2012,10,02,04,11,8.00
2012,10,02,04,12,8.00
2012,10,02,04,13,8.00
2012,10,02,04,14,8.10
2012,10,02,04,15,8.10
2012,10,02,04,16,8.10
2012,10,02,04,17,8.10
2012,10,02,04,18,8.10
2012,10,02,04,19,8.10
2012,10,02,04,20,8.10
2012,10,02,04,21,8.10
2012,10,02,04,22,8.10
2012,10,02,04,23,8.10
2012,10,02,04,24,8.10
2012,10,02,04,25,8.10
2012,10,02,04,26,8.20
2012,10,02,04,27,8.20
2012,10,02,04,28,8.20
2012,10,02,04,29,8.20
2012,10,02,04,30,8.20
2012,10,02,04,31,8.20
2012,10,02,04,32,8.20
2012,10,02,04,33,8.20
2012,10,02,04,34,8.20
2012,10,02,04,35,8.20
2012,10,02,04,36,8.30
2012,10,02,04,37,8.30
2012,10,02,04,38,8.30
2012,10,02,04,39,8.30
2012,10,02,04,40,8.30
2012,10,02,04,41,8.30
2012,10,02,04,42,8.30
2012,10,02,04,43,8.30
2012,10,02,04,44,8.30
2012,10,02,04,45,8.20
2012,10,02,04,46,8.20
2012,10,02,04,47,8.20
2012,10,02,04,48,8.20
2012,10,02,04,49,8.10
2012,10,02,04,50,8.10
2012,10,02,04,51,8.10
2012,10,02,04,52,8.10
2012,10,02,04,53,8.00
2012,10,02,04,54,8.00
2012,10,02,04,55,8.00
2012,10,02,04,56,8.10
2012,10,02,04,57,8.10
2012,10,02,04,58,8.10
2012,10,02,04,59,8.00
2012,10,02,05,00,8.00
2012,10,02,05,01,8.00
2012,10,02,05,02,8.00
2012,10,02,05,03,8.00
2012,10,02,05,04,8.00
2012,10,02,05,05,7.90
2012,10,02,05,06,7.90
2012,10,02,05,07,7.90
2012,10,02,05,08,7.90
2012,10,02,05,09,7.80
2012,10,02,05,10,7.80
2012,10,02,05,11,7.80
2012,10,02,05,12,7.80
2012,10,02,05,13,7.80
2012,10,02,05,14,7.80
2012,10,02,05,15,7.80
2012,10,02,05,16,7.80
2012,10,02,05,17,7.80
2012,10,02,05,18,7.80
2012,10,02,05,19,7.80
2012,10,02,05,20,7.70
2012,10,02,05,21,7.70
2012,10,02,05,22,7.80
2012,10,02,05,23,7.80
2012,10,02,05,24,7.80
2012,10,02,05,25,7.80
2012,10,02,05,26,7.80
2012,10,02,05,27,7.90
2012,10,02,05,28,7.90
2012,10,02,05,29,7.90
2012,10,02,05,30,7.90
2012,10,02,05,31,7.90
2012,10,02,05,32,8.10
2012,10,02,05,33,8.20
2012,10,02,05,34,8.30
2012,10,02,05,35,8.30
2012,10,02,05,36,8.30
2012,10,02,05,37,8.30
2012,10,02,05,38,8.30
2012,10,02,05,39,8.20
2012,10,02,05,40,8.20
2012,10,02,05,41,8.20
2012,10,02,05,42,8.20
2012,10,02,05,43,8.20
2012,10,02,05,44,8.30
2012,10,02,05,45,8.40
2012,10,02,05,46,8.40
2012,10,02,05,47,8.50
2012,10,02,05,48,8.50
2012,10,02,05,49,8.50
2012,10,02,05,50,8.40
2012,10,02,05,51,8.40
2012,10,02,05,52,8.30
2012,10,02,05,53,8.30
2012,10,02,05,54,8.20
2012,10,02,05,55,8.20
2012,10,02,05,56,8.20
2012,10,02,05,57,8.10
2012,10,02,05,58,8.10
2012,10,02,05,59,8.10
2012,10,02,06,00,8.10
2012,10,02,06,01,8.10
2012,10,02,06,02,8.10
2012,10,02,06,03,8.10
2012,10,02,06,04,8.00
2012,10,02,06,05,8.00
2012,10,02,06,06,7.90
2012,10,02,06,07,7.80
2012,10,02,06,08,7.80
2012,10,02,06,09,7.80
2012,10,02,06,10,7.80
2012,10,02,06,11,7.80
2012,10,02,06,12,7.80
2012,10,02,06,13,7.80
2012,10,02,06,14,7.80
2012,10,02,06,15,7.90
2012,10,02,06,16,7.90
2012,10,02,06,17,7.90
2012,10,02,06,18,7.90
2012,10,02,06,19,7.90
2012,10,02,06,20,7.90
2012,10,02,06,21,7.90
2012,10,02,06,22,7.80
2012,10,02,06,23,7.80
2012,10,02,06,24,7.70
2012,10,02,06,25,7.70
2012,10,02,06,26,7.60
2012,10,02,06,27,7.60
2012,10,02,06,28,7.60
2012,10,02,06,29,7.60
2012,10,02,06,30,7.50
2012,10,02,06,31,7.50
2012,10,02,06,32,7.50
2012,10,02,06,33,7.50
2012,10,02,06,34,7.50
2012,10,02,06,35,7.50
2012,10,02,06,36,7.50
2012,10,02,06,37,7.60
2012,10,02,06,38,7.60
2012,10,02,06,39,7.60
2012,10,02,06,40,7.60
2012,10,02,06,41,7.60
2012,10,02,06,42,7.50
2012,10,02,06,43,7.50
2012,10,02,06,44,7.50
2012,10,02,06,45,7.50
2012,10,02,06,46,7.50
2012,10,02,06,47,7.50
2012,10,02,06,48,7.60
2012,10,02,06,49,7.60
2012,10,02,06,50,7.60
2012,10,02,06,51,7.60
2012,10,02,06,52,7.50
2012,10,02,06,53,7.50
2012,10,02,06,54,7.50
2012,10,02,06,55,7.40
2012,10,02,06,56,7.30
2012,10,02,06,57,7.30
2012,10,02,06,58,7.30
2012,10,02,06,59,7.30
2012,10,02,07,00,7.30
2012,10,02,07,01,7.30
2012,10,02,07,02,7.30
2012,10,02,07,03,7.30
2012,10,02,07,04,7.40
2012,10,02,07,05,7.40
2012,10,02,07,06,7.40
2012,10,02,07,07,7.40
2012,10,02,07,08,7.40
2012,10,02,07,09,7.30
2012,10,02,07,10,7.30
2012,10,02,07,11,7.30
2012,10,02,07,12,7.30
2012,10,02,07,13,7.30
2012,10,02,07,14,7.20
2012,10,02,07,15,7.20
2012,10,02,07,16,7.20
2012,10,02,07,17,7.20
2012,10,02,07,18,7.20
2012,10,02,07,19,7.20
2012,10,02,07,20,7.20
2012,10,02,07,21,7.20
2012,10,02,07,22,7.20
2012,10,02,07,23,7.20
2012,10,02,07,24,7.20
2012,10,02,07,25,7.30
2012,10,02,07,26,7.30
2012,10,02,07,27,7.30
2012,10,02,07,28,7.30
2012,10,02,07,29,7.30
2012,10,02,07,30,7.30
2012,10,02,07,31,7.30
2012,10,02,07,32,7.30
2012,10,02,07,33,7.30
2012,10,02,07,34,7.30
2012,10,02,07,35,7.30
2012,10,02,07,36,7.30
2012,10,02,07,37,7.30
2012,10,02,07,38,7.30
2012,10,02,07,39,7.20
2012,10,02,07,40,7.20
2012,10,02,07,41,7.10
2012,10,02,07,42,7.10
2012,10,02,07,43,7.10
2012,10,02,07,44,7.10
2012,10,02,07,45,7.10
2012,10,02,07,46,7.10
2012,10,02,07,47,7.10
2012,10,02,07,48,7.10
2012,10,02,07,49,7.20
2012,10,02,07,50,7.20
2012,10,02,07,51,7.10
2012,10,02,07,52,7.10
2012,10,02,07,53,7.10
2012,10,02,07,54,7.10
2012,10,02,07,55,7.10
2012,10,02,07,56,7.10
2012,10,02,07,57,7.00
2012,10,02,07,58,7.00
2012,10,02,07,59,7.10
2012,10,02,08,00,7.10
2012,10,02,08,01,7.10
2012,10,02,08,02,7.10
2012,10,02,08,03,7.20
2012,10,02,08,04,7.30
2012,10,02,08,05,7.40
2012,10,02,08,06,7.40
2012,10,02,08,07,7.50
2012,10,02,08,08,7.50
2012,10,02,08,09,7.60
2012,10,02,08,10,7.60
2012,10,02,08,11,7.60
2012,10,02,08,12,7.60
2012,10,02,08,13,7.60
2012,10,02,08,14,7.60
2012,10,02,08,15,7.70
2012,10,02,08,16,7.70
2012,10,02,08,17,7.70
2012,10,02,08,18,7.70
2012,10,02,08,19,7.70
2012,10,02,08,20,7.70
2012,10,02,08,21,7.80
2012,10,02,08,22,7.80
2012,10,02,08,23,7.80
2012,10,02,08,24,7.80
2012,10,02,08,25,7.80
2012,10,02,08,26,7.80
2012,10,02,08,27,7.90
2012,10,02,08,28,7.90
2012,10,02,08,29,7.90
2012,10,02,08,30,8.00
2012,10,02,08,31,8.00
2012,10,02,08,32,8.00
2012,10,02,08,33,8.10
2012,10,02,08,34,8.10
2012,10,02,08,35,8.20
2012,10,02,08,36,8.20
2012,10,02,08,37,8.20
2012,10,02,08,38,8.30
2012,10,02,08,39,8.30
2012,10,02,08,40,8.40
2012,10,02,08,41,8.40
2012,10,02,08,42,8.50
2012,10,02,08,43,8.50
2012,10,02,08,44,8.50
2012,10,02,08,45,8.60
2012,10,02,08,46,8.60
2012,10,02,08,47,8.70
2012,10,02,08,48,8.70
2012,10,02,08,49,8.70
2012,10,02,08,50,8.70
2012,10,02,08,51,8.80
2012,10,02,08,52,8.80
2012,10,02,08,53,8.90
2012,10,02,08,54,8.90
2012,10,02,08,55,8.90
2012,10,02,08,56,9.00
2012,10,02,08,57,9.00
2012,10,02,08,58,9.00
2012,10,02,08,59,9.00
2012,10,02,09,00,9.00
2012,10,02,09,01,9.10
2012,10,02,09,02,9.10
2012,10,02,09,03,9.10
2012,10,02,09,04,9.10
2012,10,02,09,05,9.00
2012,10,02,09,06,9.00
2012,10,02,09,07,9.10
2012,10,02,09,08,9.10
2012,10,02,09,09,9.10
2012,10,02,09,10,9.10
2012,10,02,09,11,9.20
2012,10,02,09,12,9.30
2012,10,02,09,13,9.40
2012,10,02,09,14,9.50
2012,10,02,09,15,9.60
2012,10,02,09,16,9.70
2012,10,02,09,17,9.70
2012,10,02,09,18,9.80
2012,10,02,09,19,9.80
2012,10,02,09,20,9.80
2012,10,02,09,21,9.80
2012,10,02,09,22,9.80
2012,10,02,09,23,9.70
2012,10,02,09,24,9.70
2012,10,02,09,25,9.70
2012,10,02,09,26,9.70
2012,10,02,09,27,9.70
2012,10,02,09,28,9.70
2012,10,02,09,29,9.70
2012,10,02,09,30,9.70
2012,10,02,09,31,9.70
2012,10,02,09,32,9.70
2012,10,02,09,33,9.70
2012,10,02,09,34,9.70
2012,10,02,09,35,9.60
2012,10,02,09,36,9.70
2012,10,02,09,37,9.70
2012,10,02,09,38,9.70
2012,10,02,09,39,9.70
2012,10,02,09,40,9.70
2012,10,02,09,41,9.70
2012,10,02,09,42,9.70
2012,10,02,09,43,9.70
2012,10,02,09,44,9.80
2012,10,02,09,45,9.80
2012,10,02,09,46,9.80
2012,10,02,09,47,9.80
2012,10,02,09,48,9.80
2012,10,02,09,49,9.90
2012,10,02,09,50,9.90
2012,10,02,09,51,9.90
2012,10,02,09,52,9.90
2012,10,02,09,53,9.90
2012,10,02,09,54,9.90
2012,10,02,09,55,9.90
2012,10,02,09,56,9.90
2012,10,02,09,57,9.90
2012,10,02,09,58,9.90
2012,10,02,09,59,9.90
2012,10,02,10,00,9.90
2012,10,02,10,01,9.90
2012,10,02,10,02,9.90
2012,10,02,10,03,9.90
2012,10,02,10,04,9.90
2012,10,02,10,05,9.90
2012,10,02,10,06,9.90
2012,10,02,10,07,9.90
2012,10,02,10,08,9.90
2012,10,02,10,09,9.90
2012,10,02,10,10,9.90
2012,10,02,10,11,9.90
2012,10,02,10,12,9.90
2012,10,02,10,13,10.10
2012,10,02,10,14,10.10
2012,10,02,10,15,10.10
2012,10,02,10,16,10.10
2012,10,02,10,17,10.10
2012,10,02,10,18,10.10
2012,10,02,10,19,10.10
2012,10,02,10,20,10.10
2012,10,02,10,21,10.10
2012,10,02,10,22,10.10
2012,10,02,10,23,10.10
2012,10,02,10,24,10.10
2012,10,02,10,25,10.10
2012,10,02,10,26,10.10
2012,10,02,10,27,10.20
2012,10,02,10,28,10.20
2012,10,02,10,29,10.20
2012,10,02,10,30,10.30
2012,10,02,10,31,10.30
2012,10,02,10,32,10.40
2012,10,02,10,33,10.30
2012,10,02,10,34,10.30
2012,10,02,10,35,10.30
2012,10,02,10,36,10.30
2012,10,02,10,37,10.30
2012,10,02,10,38,10.30
2012,10,02,10,39,10.30
2012,10,02,10,40,10.40
2012,10,02,10,41,10.40
2012,10,02,10,42,10.30
2012,10,02,10,43,10.30
2012,10,02,10,44,10.30
2012,10,02,10,45,10.20
2012,10,02,10,46,10.20
2012,10,02,10,47,10.20
2012,10,02,10,48,10.20
2012,10,02,10,49,10.20
2012,10,02,10,50,10.10
2012,10,02,10,51,10.20
2012,10,02,10,52,10.20
2012,10,02,10,53,10.20
2012,10,02,10,54,10.10
2012,10,02,10,55,10.10
2012,10,02,10,56,10.10
2012,10,02,10,57,10.10
2012,10,02,10,58,10.20
2012,10,02,10,59,10.20
2012,10,02,11,00,10.20
2012,10,02,11,01,10.20
2012,10,02,11,02,10.20
2012,10,02,11,03,10.20
2012,10,02,11,04,10.10
2012,10,02,11,05,10.10
2012,10,02,11,06,10.10
2012,10,02,11,07,10.10
2012,10,02,11,08,10.10
2012,10,02,11,09,10.10
2012,10,02,11,10,10.10
2012,10,02,11,11,10.10
2012,10,02,11,12,10.10
2012,10,02,11,13,10.10
2012,10,02,11,14,10.10
2012,10,02,11,15,10.10
2012,10,02,11,16,10.10
2012,10,02,11,17,10.10
2012,10,02,11,18,10.10
2012,10,02,11,19,10.10
2012,10,02,11,20,10.10
2012,10,02,11,21,10.10
2012,10,02,11,22,10.20
2012,10,02,11,23,10.20
2012,10,02,11,24,10.30
2012,10,02,11,25,10.40
2012,10,02,11,26,10.40
2012,10,02,11,27,10.40
2012,10,02,11,28,10.40
2012,10,02,11,29,10.40
2012,10,02,11,30,10.40
2012,10,02,11,31,10.40
2012,10,02,11,32,10.40
2012,10,02,11,33,10.40
2012,10,02,11,34,10.40
2012,10,02,11,35,10.40
2012,10,02,11,36,10.40
2012,10,02,11,37,10.40
2012,10,02,11,38,10.40
2012,10,02,11,39,10.40
2012,10,02,11,40,10.40
2012,10,02,11,41,10.40
2012,10,02,11,42,10.40
2012,10,02,11,43,10.50
2012,10,02,11,44,10.60
2012,10,02,11,45,10.60
2012,10,02,11,46,10.60
2012,10,02,11,47,10.50
2012,10,02,11,48,10.50
2012,10,02,11,49,10.60
2012,10,02,11,50,10.60
2012,10,02,11,51,10.60
2012,10,02,11,52,10.60
2012,10,02,11,53,10.60
2012,10,02,11,54,10.60
2012,10,02,11,55,10.60
2012,10,02,11,56,10.60
2012,10,02,11,57,10.60
2012,10,02,11,58,10.60
2012,10,02,11,59,10.60
2012,10,02,12,00,10.60
2012,10,02,12,01,10.60
2012,10,02,12,02,10.60
2012,10,02,12,03,10.60
2012,10,02,12,04,10.70
2012,10,02,12,05,10.70
2012,10,02,12,06,10.70
2012,10,02,12,07,10.80
2012,10,02,12,08,10.80
2012,10,02,12,09,10.70
2012,10,02,12,10,10.70
2012,10,02,12,11,10.70
2012,10,02,12,12,10.70
2012,10,02,12,13,10.80
2012,10,02,12,14,10.80
2012,10,02,12,15,10.90
2012,10,02,12,16,10.90
2012,10,02,12,17,10.90
2012,10,02,12,18,10.90
2012,10,02,12,19,10.90
2012,10,02,12,20,11.00
2012,10,02,12,21,11.10
2012,10,02,12,22,11.10
2012,10,02,12,23,10.90
2012,10,02,12,24,10.90
2012,10,02,12,25,10.80
2012,10,02,12,26,10.80
2012,10,02,12,27,10.80
2012,10,02,12,28,11.00
2012,10,02,12,29,11.10
2012,10,02,12,30,11.10
2012,10,02,12,31,11.20
2012,10,02,12,32,11.30
2012,10,02,12,33,11.30
2012,10,02,12,34,11.30
2012,10,02,12,35,11.20
2012,10,02,12,36,11.20
2012,10,02,12,37,11.20
2012,10,02,12,38,11.20
2012,10,02,12,39,11.30
2012,10,02,12,40,11.30
2012,10,02,12,41,11.30
2012,10,02,12,42,11.40
2012,10,02,12,43,11.40
2012,10,02,12,44,11.40
2012,10,02,12,45,11.40
2012,10,02,12,46,11.40
2012,10,02,12,47,11.40
2012,10,02,12,48,11.40
2012,10,02,12,49,11.40
2012,10,02,12,50,11.30
2012,10,02,12,51,11.30
2012,10,02,12,52,11.30
2012,10,02,12,53,11.40
2012,10,02,12,54,11.40
2012,10,02,12,55,11.40
2012,10,02,12,56,11.40
2012,10,02,12,57,11.40
2012,10,02,12,58,11.40
2012,10,02,12,59,11.40
2012,10,02,13,00,11.40
2012,10,02,13,01,11.40
2012,10,02,13,02,11.50
2012,10,02,13,03,11.50
2012,10,02,13,04,11.40
2012,10,02,13,05,11.40
2012,10,02,13,06,11.40
2012,10,02,13,07,11.40
2012,10,02,13,08,11.40
2012,10,02,13,09,11.40
2012,10,02,13,10,11.40
2012,10,02,13,11,11.40
2012,10,02,13,12,11.40
2012,10,02,13,13,11.40
2012,10,02,13,14,11.40
2012,10,02,13,15,11.40
2012,10,02,13,16,11.40
2012,10,02,13,17,11.40
2012,10,02,13,18,11.40
2012,10,02,13,19,11.40
2012,10,02,13,20,11.50
2012,10,02,13,21,11.60
2012,10,02,13,22,11.60
2012,10,02,13,23,11.70
2012,10,02,13,24,11.80
2012,10,02,13,25,11.80
2012,10,02,13,26,11.80
2012,10,02,13,27,11.80
2012,10,02,13,28,11.80
2012,10,02,13,29,11.80
2012,10,02,13,30,11.80
2012,10,02,13,31,11.80
2012,10,02,13,32,11.70
2012,10,02,13,33,11.60
2012,10,02,13,34,11.60
2012,10,02,13,35,11.60
2012,10,02,13,36,11.50
2012,10,02,13,37,11.40
2012,10,02,13,38,11.40
2012,10,02,13,39,11.40
2012,10,02,13,40,11.40
2012,10,02,13,41,11.40
2012,10,02,13,42,11.40
2012,10,02,13,43,11.30
2012,10,02,13,44,11.30
2012,10,02,13,45,11.30
2012,10,02,13,46,11.40
2012,10,02,13,47,11.30
2012,10,02,13,48,11.30
2012,10,02,13,49,11.30
2012,10,02,13,50,11.30
2012,10,02,13,51,11.30
2012,10,02,13,52,11.30
2012,10,02,13,53,11.30
2012,10,02,13,54,11.40
2012,10,02,13,55,11.40
2012,10,02,13,56,11.50
2012,10,02,13,57,11.60
2012,10,02,13,58,11.70
2012,10,02,13,59,11.70
2012,10,02,14,00,11.80
2012,10,02,14,01,11.70
2012,10,02,14,02,11.60
2012,10,02,14,03,11.60
2012,10,02,14,04,11.60
2012,10,02,14,05,11.60
2012,10,02,14,06,11.50
2012,10,02,14,07,11.40
2012,10,02,14,08,11.40
2012,10,02,14,09,11.30
2012,10,02,14,10,11.20
2012,10,02,14,11,11.30
2012,10,02,14,12,11.30
2012,10,02,14,13,11.20
2012,10,02,14,14,11.30
2012,10,02,14,15,11.30
2012,10,02,14,16,11.30
2012,10,02,14,17,11.30
2012,10,02,14,18,11.40
2012,10,02,14,19,11.40
2012,10,02,14,20,11.40
2012,10,02,14,21,11.40
2012,10,02,14,22,11.50
2012,10,02,14,23,11.60
2012,10,02,14,24,11.60
2012,10,02,14,25,11.70
2012,10,02,14,26,11.80
2012,10,02,14,27,11.80
2012,10,02,14,28,11.80
2012,10,02,14,29,11.80
2012,10,02,14,30,11.80
2012,10,02,14,31,11.80
2012,10,02,14,32,11.80
2012,10,02,14,33,11.80
2012,10,02,14,34,11.80
2012,10,02,14,35,11.80
2012,10,02,14,36,11.80
2012,10,02,14,37,11.80
2012,10,02,14,38,11.80
2012,10,02,14,39,11.80
2012,10,02,14,40,11.80
2012,10,02,14,41,11.80
2012,10,02,14,42,11.80
2012,10,02,14,43,11.80
2012,10,02,14,44,11.80
2012,10,02,14,45,11.80
2012,10,02,14,46,11.90
2012,10,02,14,47,11.90
2012,10,02,14,48,11.90
2012,10,02,14,49,11.90
2012,10,02,14,50,11.90
2012,10,02,14,51,11.90
2012,10,02,14,52,11.90
2012,10,02,14,53,11.90
2012,10,02,14,54,12.00
2012,10,02,14,55,11.90
2012,10,02,14,56,11.80
2012,10,02,14,57,11.80
2012,10,02,14,58,11.90
2012,10,02,14,59,12.00
2012,10,02,15,00,12.00
2012,10,02,15,01,12.10
2012,10,02,15,02,12.10
2012,10,02,15,03,12.20
2012,10,02,15,04,12.20
2012,10,02,15,05,12.20
2012,10,02,15,06,12.20
2012,10,02,15,07,12.20
2012,10,02,15,08,12.10
2012,10,02,15,09,12.10
2012,10,02,15,10,12.00
2012,10,02,15,11,12.00
2012,10,02,15,12,12.00
2012,10,02,15,13,12.10
2012,10,02,15,14,12.00
2012,10,02,15,15,12.00
2012,10,02,15,16,12.10
2012,10,02,15,17,12.00
2012,10,02,15,18,12.00
2012,10,02,15,19,12.00
2012,10,02,15,20,12.00
2012,10,02,15,21,12.00
2012,10,02,15,22,12.00
2012,10,02,15,23,12.00
2012,10,02,15,24,12.10
2012,10,02,15,25,12.10
2012,10,02,15,26,12.20
2012,10,02,15,27,12.20
2012,10,02,15,28,12.10
2012,10,02,15,29,12.10
2012,10,02,15,30,12.10
2012,10,02,15,31,12.20
2012,10,02,15,32,12.10
2012,10,02,15,33,12.10
2012,10,02,15,34,12.10
2012,10,02,15,35,12.20
2012,10,02,15,36,12.20
2012,10,02,15,37,12.30
2012,10,02,15,38,12.30
2012,10,02,15,39,12.30
2012,10,02,15,40,12.20
2012,10,02,15,41,12.20
2012,10,02,15,42,12.10
2012,10,02,15,43,12.10
2012,10,02,15,44,12.10
2012,10,02,15,45,12.10
2012,10,02,15,46,12.10
2012,10,02,15,47,12.00
2012,10,02,15,48,11.90
2012,10,02,15,49,11.90
2012,10,02,15,50,11.90
2012,10,02,15,51,11.90
2012,10,02,15,52,12.00
2012,10,02,15,53,12.00
2012,10,02,15,54,12.10
2012,10,02,15,55,12.10
2012,10,02,15,56,12.00
2012,10,02,15,57,12.00
2012,10,02,15,58,11.90
2012,10,02,15,59,11.90
2012,10,02,16,00,11.80
2012,10,02,16,01,11.80
2012,10,02,16,02,11.80
2012,10,02,16,03,11.80
2012,10,02,16,04,11.90
2012,10,02,16,05,11.90
2012,10,02,16,06,12.00
2012,10,02,16,07,12.00
2012,10,02,16,08,12.10
2012,10,02,16,09,12.20
2012,10,02,16,10,12.20
2012,10,02,16,11,12.30
2012,10,02,16,12,12.20
2012,10,02,16,13,12.20
2012,10,02,16,14,12.10
2012,10,02,16,15,12.20
2012,10,02,16,16,12.20
2012,10,02,16,17,12.20
2012,10,02,16,18,12.20
2012,10,02,16,19,12.20
2012,10,02,16,20,12.20
2012,10,02,16,21,12.10
2012,10,02,16,22,12.10
2012,10,02,16,23,12.10
2012,10,02,16,24,12.10
2012,10,02,16,25,12.20
2012,10,02,16,26,12.30
2012,10,02,16,27,12.30
2012,10,02,16,28,12.30
2012,10,02,16,29,12.30
2012,10,02,16,30,12.30
2012,10,02,16,31,12.30
2012,10,02,16,32,12.30
2012,10,02,16,33,12.30
2012,10,02,16,34,12.30
2012,10,02,16,35,12.30
2012,10,02,16,36,12.30
2012,10,02,16,37,12.30
2012,10,02,16,38,12.30
2012,10,02,16,39,12.20
2012,10,02,16,40,12.10
2012,10,02,16,41,12.10
2012,10,02,16,42,12.10
2012,10,02,16,43,12.20
2012,10,02,16,44,12.20
2012,10,02,16,45,12.30
2012,10,02,16,46,12.30
2012,10,02,16,47,12.30
2012,10,02,16,48,12.20
2012,10,02,16,49,12.20
2012,10,02,16,50,12.20
2012,10,02,16,51,12.20
2012,10,02,16,52,12.30
2012,10,02,16,53,12.30
2012,10,02,16,54,12.40
2012,10,02,16,55,12.50
2012,10,02,16,56,12.50
2012,10,02,16,57,12.60
2012,10,02,16,58,12.60
2012,10,02,16,59,12.50
2012,10,02,17,00,12.60
2012,10,02,17,01,12.60
2012,10,02,17,02,12.60
2012,10,02,17,03,12.60
2012,10,02,17,04,12.70
2012,10,02,17,05,12.80
2012,10,02,17,06,12.80
2012,10,02,17,07,12.80
2012,10,02,17,08,12.80
2012,10,02,17,09,12.80
2012,10,02,17,10,12.80
2012,10,02,17,11,12.80
2012,10,02,17,12,12.70
2012,10,02,17,13,12.60
2012,10,02,17,14,12.50
2012,10,02,17,15,12.50
2012,10,02,17,16,12.40
2012,10,02,17,17,12.30
2012,10,02,17,18,12.30
2012,10,02,17,19,12.30
2012,10,02,17,20,12.30
2012,10,02,17,21,12.30
2012,10,02,17,22,12.40
2012,10,02,17,23,12.40
2012,10,02,17,24,12.50
2012,10,02,17,25,12.50
2012,10,02,17,26,12.50
2012,10,02,17,27,12.60
2012,10,02,17,28,12.70
2012,10,02,17,29,12.80
2012,10,02,17,30,12.90
2012,10,02,17,31,13.00
2012,10,02,17,32,13.10
2012,10,02,17,33,13.20
2012,10,02,17,34,13.30
2012,10,02,17,35,13.40
2012,10,02,17,36,13.40
2012,10,02,17,37,13.50
2012,10,02,17,38,13.50
2012,10,02,17,39,13.50
2012,10,02,17,40,13.50
2012,10,02,17,41,13.60